Skip Page Navigation
NASA JPL Caltech
NASA Logo - Jet Propulsion Laboratory + View the NASA Portal
+ Near-Earth Object (NEO) Program
Search JPL
JPL Home Earth Solar System Stars & Galaxies Technology
JPL Solar System Dynamics
BODIES ORBITS EPHEMERIDES TOOLS PHYSICAL DATA DISCOVERY FAQ SITE MAP
JPL Small-Body Database Browser
Search: [ help ]  
(2012 MU2)
Classification: Apollo [NEO, PHA]          SPK-ID: 3605857
Ephemeris | Orbit Diagram | Orbital Elements | Physical Parameters | Close-Approach Data ]

[ show orbit diagram ]
Orbital Elements at Epoch 2457000.5 (2014-Dec-09.0) TDB
Reference: JPL 43 (heliocentric ecliptic J2000)
 Element Value Uncertainty (1-sigma)   Units 
e .5140693402368304 2.956e-06  
a 2.057077420548388 1.2875e-05 AU
q .9995969881509972 1.7982e-07 AU
i 11.21482643782815 4.5194e-05 deg
node 250.3522727288316 5.1108e-05 deg
peri 16.55325571649035 4.4357e-05 deg
M 299.7462050449074 0.002796 deg
tp 2457180.866669940535
(2015-Jun-07.36666994)
0.010063 JED
period 1077.641685921805
2.95
0.010117
2.77e-05
d
yr
n .3340628009318881 3.1362e-06 deg/d
Q 3.114557852945778 1.9493e-05 AU
  Orbit Determination Parameters
   # obs. used (total)      186  
   # delay obs. used      0  
   # Doppler obs. used      1  
   data-arc span      113 days  
   first obs. used      2012-06-18  
   last obs. used      2012-10-09  
   planetary ephem.      DE431  
   SB-pert. ephem.      SB431-BIG16  
   condition code      3  
   fit RMS      .54114  
   data source      ORB  
   producer      Otto Matic  
   solution date      2014-Jun-13 16:02:45  

Additional Information
 Earth MOID = .00126445 AU 
 T_jup = 3.588 
[ show covariance matrix ]

Ephemeris | Orbit Diagram | Orbital Elements | Physical Parameters | Close-Approach Data ]

Physical Parameter Table
Parameter Symbol Value Units Sigma Reference Notes
absolute magnitude H 20.8 mag n/a MPO242006  

[ show close-approach data ]
Ephemeris | Orbit Diagram | Orbital Elements | Physical Parameters | Close-Approach Data ]
ABOUT SSD CREDITS/AWARDS PRIVACY/COPYRIGHT GLOSSARY LINKS
FirstGov 2014-Nov-26 17:27 UT
(server date/time)  
NASA Home Page
Site Manager:   Donald K. Yeomans
Webmaster  Alan B. Chamberlin